Location: Averill Park
(42.6340°N, 73.5537°W)
Time: 12:58:11
(UTC+00:00)

DOVE 4 - Visible Passes

Search period start: 14 February 2026 00:00
Search period end: 24 February 2026 00:00
Orbit: 572 x 756 km, 97.7° (Epoch: 13 February)

Date Brightness Start Highest point End Pass type
(mag) Time Alt. Az. Time Alt. Az. Time Alt. Az.
14 Feb ? 00:19:13 15° S 00:19:13 15° S 00:20:04 10° S visible
14 Feb ? 11:13:22 10° SSE 11:17:40 48° ENE 11:21:47 10° N visible
15 Feb ? 00:50:07 17° SSW 00:50:07 17° SSW 00:51:08 10° SSW visible
15 Feb ? 10:10:59 10° ENE 10:12:04 11° ENE 10:13:08 10° NE visible
15 Feb ? 23:42:56 14° SE 23:42:56 14° SE 23:43:49 10° SE visible
16 Feb ? 01:21:00 13° SW 01:21:00 13° SW 01:21:32 10° SW visible
16 Feb ? 10:39:22 10° ESE 10:42:41 22° ENE 10:45:55 10° NNE visible
17 Feb ? 00:13:45 25° SSE 00:13:45 25° SSE 00:15:47 10° S visible
17 Feb ? 11:09:17 10° SE 11:13:26 44° ENE 11:17:26 10° N visible
18 Feb ? 00:44:30 33° SSW 00:44:30 33° SSW 00:46:56 10° SSW visible
18 Feb ? 23:37:06 18° ESE 23:37:06 18° ESE 23:39:23 10° SE visible
19 Feb ? 01:15:08 26° WSW 01:15:08 26° WSW 01:17:24 10° SW visible
19 Feb ? 10:35:22 10° ESE 10:38:26 19° ENE 10:41:26 10° NNE visible
20 Feb ? 00:07:33 40° ESE 00:07:33 40° ESE 00:11:29 10° S visible
20 Feb ? 01:45:35 15° W 01:45:35 15° W 01:47:04 10° WSW visible
20 Feb ? 11:05:09 10° SE 11:09:09 39° ENE 11:13:02 10° N visible
21 Feb ? 00:37:34 58° N 00:38:23 89° WNW 00:42:42 10° SSW visible
21 Feb ? 23:29:12 10° NE 23:32:02 17° E 23:34:56 10° SE visible
22 Feb ? 01:05:20 10° N 01:09:13 40° WNW 01:13:15 10° SW visible
22 Feb ? 10:31:20 10° ESE 10:34:09 18° ENE 10:36:54 10° NNE visible
22 Feb ? 23:59:12 10° NNE 00:03:06 37° E 00:07:09 10° SSE visible
23 Feb ? 01:36:54 10° NNW 01:39:56 20° WNW 01:43:02 10° WSW visible
23 Feb ? 11:00:58 10° SE 11:04:50 35° ENE 11:08:35 10° N visible
